Home   Weather   Wichita   Past weeks

Flag for USA Past Weather in Wichita, Kansas, USA — Yesterday and Last 2 Weeks

Now
65 °F

Passing clouds.


Feels Like: 65 °F
Forecast: 49 / 73 °F
Wind: 7 mph from Northeast

Location: Wichita Mid-Continent Airport

Current Time: Sep 29, 2016 at 8:33:01 PM

Latest Report: Sep 29, 2016 at 7:53 PM


Visibility: 10 mi

Pressure: 30.28 "Hg

Humidity: 56%

Dew Point: 49 °F

Location of WichitaLocation

Past Weather in Wichita — Graph

°F

Wichita Temperature Yesterday

Maximum temperature yesterday: 77 °F (at 2:53 PM)
Minimum temperature yesterday: 56 °F (at 11:53 PM)
Average temperature yesterday: 66 °F

High & Low Weather Summary for the Past Weeks

 TemperatureHumidityPressure
High94 °F (Sep 20, 2:53 PM)100% (Sep 17, 4:53 AM)30.42 "Hg (Sep 17, 4:53 AM)
Low48 °F (Sep 26, 6:53 AM)24% (Sep 28, 3:53 PM)29.84 "Hg (Sep 24, 4:53 PM)
Average72 °F72%30.01 "Hg
* Reported Sep 14 6:53 PM — Sep 29 6:53 PM, Wichita, Weather by CustomWeather, © 2016

Note: Actual official high and low records may vary slightly from our data, if they occured in-between our weather recording intervals... More about our weather records

Advertising

Wichita Weather History for the Previous 24 Hours

Scroll right to see more
 ConditionsComfort  
Time TempWeatherWind HumidityBarometerVisibility
6:53 PM
Thu, Sep 29
67 °FPassing clouds.7 mph53%30.29 "Hg10 mi
5:53 PM70 °FPassing clouds.8 mph47%30.28 "Hg10 mi
4:53 PM71 °FPassing clouds.6 mph45%30.29 "Hg10 mi
3:53 PM71 °FPassing clouds.7 mph45%30.30 "Hg10 mi
2:53 PM71 °FPassing clouds.8 mph45%30.33 "Hg10 mi
1:53 PM69 °FPassing clouds.9 mph51%30.36 "Hg10 mi
12:53 PM67 °FScattered clouds.7 mph53%30.38 "Hg10 mi
11:53 AM66 °FScattered clouds.7 mph54%30.40 "Hg10 mi
10:53 AM62 °FPassing clouds.5 mph62%30.42 "Hg10 mi
9:53 AM59 °FPassing clouds.9 mph69%30.41 "Hg10 mi
8:53 AM55 °FPassing clouds.8 mph80%30.39 "Hg10 mi
7:53 AM50 °FPassing clouds.8 mph86%30.38 "Hg10 mi
6:53 AM49 °FPassing clouds.7 mph90%30.36 "Hg10 mi
5:53 AM49 °FPassing clouds.6 mph90%30.33 "Hg10 mi
4:53 AM52 °FPassing clouds.6 mph83%30.31 "Hg10 mi
3:53 AM53 °FPassing clouds.7 mph80%30.29 "Hg10 mi
2:53 AM54 °FPassing clouds.7 mph77%30.28 "Hg10 mi
1:53 AM55 °FClear.9 mph74%30.27 "Hg10 mi
12:53 AM56 °FClear.9 mph72%30.27 "Hg10 mi
11:53 PM
Wed, Sep 28
56 °FClear.9 mph72%30.26 "Hg10 mi
10:53 PM57 °FClear.9 mph72%30.25 "Hg10 mi
9:53 PM60 °FClear.12 mph65%30.23 "Hg10 mi
8:53 PM63 °FClear.8 mph58%30.21 "Hg10 mi
Weather by CustomWeather, © 2016

See weather overviewHow to use our weather pages